Weather History for Stafford, VA

Change the Weather History Date:

Friday, November 1, 2013

  Actual Average (KNYG) Record (KNYG)
Temperature  
Mean Temperature 66 °F -  
Max Temperature 74 °F 60 °F 73 °F (2013)
Min Temperature 57 °F 41 °F 33 °F (2002)
Cooling Degree Days 1    
Growing Degree Days 16 (Base 50)    
Moisture  
Dew Point 62 °F    
Average Humidity 81    
Maximum Humidity 100    
Minimum Humidity 62    
Precipitation  
Precipitation 0.02 in - - ()
Sea Level Pressure  
Sea Level Pressure 29.71 in    
Wind  
Wind Speed 9 mph (SSW)    
Max Wind Speed 16 mph    
Max Gust Speed 28 mph    
Visibility 9 miles    
Events Fog , Rain    
Averages and records for this station are not official NWS values.
T = Trace of Precipitation, MM = Missing Value Source: NWS Daily Summary

Daily Weather History Graph

Daily Weather History Graph

Search for Another Location

Airport:

Trip Planner

Search our weather history database for the weather conditions in past years. The results will help you decide how hot, cold, wet, or windy it might be!

Date:

Astronomy

Nov. 01, 2013 Rise Set
Actual Time 7:36 AM EDT 6:09 PM EDT
Civil Twilight 7:08 AM EDT 6:37 PM EDT
Nautical Twilight 6:37 AM EDT 7:08 PM EDT
Astronomical Twilight 6:06 AM EDT 7:39 PM EDT
Moon 5:27 AM EDT (11/1) 5:00 PM EDT (11/1)
Length of Visible Light 11h 28m
Length of Day
10h 33m
Waning Crescent, 4% of the Moon is Illuminated
Nov 1
Waning Crescent
Nov 3
New
Nov 10
First Quarter
Nov 17
Full
Nov 25
Last Quarter

Hourly Weather History & Observations

Time (EDT) Temp. Dew Point Humidity Pressure Visibility Wind Dir Wind Speed Gust Speed Precip Events Conditions
12:15 AM 68.4 °F 56.5 °F 66% 29.84 in 10.0 mi South 9.2 mph 17.3 mph N/A   Scattered Clouds
12:35 AM 68.2 °F 57.2 °F 68% 29.83 in 10.0 mi South 8.1 mph - N/A   Scattered Clouds
12:55 AM 68.4 °F 58.1 °F 70% 29.81 in 10.0 mi South 9.2 mph - N/A   Clear
1:15 AM 68.9 °F 59.2 °F 71% 29.80 in 10.0 mi South 6.9 mph 20.7 mph N/A   Clear
1:35 AM 69.4 °F 60.4 °F 73% 29.79 in 10.0 mi South 11.5 mph 21.9 mph N/A   Clear
1:55 AM 70.0 °F 61.3 °F 74% 29.77 in 10.0 mi South 10.4 mph 18.4 mph N/A   Clear
2:15 AM 70.0 °F 61.7 °F 75% 29.75 in 10.0 mi South 11.5 mph 24.2 mph N/A   Clear
2:35 AM 70.0 °F 61.7 °F 75% 29.75 in 10.0 mi SSW 13.8 mph 23.0 mph N/A   Clear
2:55 AM 70.9 °F 61.9 °F 73% 29.74 in 10.0 mi South 16.1 mph 23.0 mph N/A   Clear
3:15 AM 71.1 °F 62.1 °F 73% 29.72 in 10.0 mi South 12.7 mph 27.6 mph N/A   Clear
3:35 AM 71.8 °F 62.4 °F 72% 29.73 in 10.0 mi SSW 15.0 mph 23.0 mph N/A   Scattered Clouds
3:55 AM 71.6 °F 63.5 °F 76% 29.72 in 10.0 mi SSW 16.1 mph 23.0 mph N/A   Mostly Cloudy
4:15 AM 72.0 °F 63.7 °F 75% 29.71 in 10.0 mi SSW 11.5 mph 25.3 mph N/A   Overcast
4:35 AM 72.0 °F 64.2 °F 77% 29.71 in 10.0 mi SSW 12.7 mph 26.5 mph N/A   Mostly Cloudy
4:55 AM 72.0 °F 64.4 °F 77% 29.70 in 10.0 mi South 11.5 mph 19.6 mph N/A   Mostly Cloudy
5:15 AM 72.0 °F 64.6 °F 77% 29.69 in 10.0 mi South 12.7 mph 26.5 mph N/A   Mostly Cloudy
5:35 AM 71.8 °F 66.2 °F 83% 29.68 in 10.0 mi South 12.7 mph 25.3 mph N/A   Mostly Cloudy
5:55 AM 71.6 °F 67.5 °F 87% 29.68 in 10.0 mi South 15.0 mph 21.9 mph N/A   Scattered Clouds
6:15 AM 71.6 °F 67.6 °F 87% 29.68 in 10.0 mi South 11.5 mph 24.2 mph N/A   Scattered Clouds
6:35 AM 71.6 °F 68.0 °F 88% 29.67 in 10.0 mi South 13.8 mph 20.7 mph N/A   Scattered Clouds
6:55 AM 71.6 °F 68.0 °F 88% 29.68 in 10.0 mi South 10.4 mph 26.5 mph N/A   Scattered Clouds
7:15 AM 71.6 °F 67.3 °F 86% 29.67 in 10.0 mi South 13.8 mph 19.6 mph N/A Rain Rain
7:35 AM 70.2 °F 69.4 °F 98% 29.67 in 10.0 mi South 10.4 mph 17.3 mph N/A   Mostly Cloudy
7:55 AM 71.1 °F 68.4 °F 91% 29.67 in 10.0 mi South 10.4 mph 17.3 mph N/A   Overcast
8:15 AM 71.6 °F 67.6 °F 87% 29.68 in 10.0 mi SSW 11.5 mph 17.3 mph N/A   Mostly Cloudy
8:35 AM 71.8 °F 65.3 °F 80% 29.69 in 10.0 mi SSW 10.4 mph 18.4 mph N/A   Overcast
8:55 AM 71.8 °F 64.6 °F 78% 29.70 in 10.0 mi SSW 9.2 mph - N/A   Overcast
9:15 AM 72.1 °F 63.9 °F 75% 29.70 in 10.0 mi SSW 6.9 mph 16.1 mph N/A   Overcast
9:35 AM 72.5 °F 63.5 °F 73% 29.71 in 10.0 mi SSW 10.4 mph 19.6 mph N/A   Overcast
9:55 AM 66.2 °F 66.2 °F 100% 29.74 in 5.0 mi West 9.2 mph 23.0 mph 0.02 in Rain Rain
10:15 AM 64.8 °F 64.8 °F 100% 29.73 in 10.0 mi Calm Calm - N/A Rain Light Rain
10:35 AM 65.3 °F 65.3 °F 100% 29.73 in 10.0 mi WSW 4.6 mph - N/A   Light Drizzle
10:55 AM 66.4 °F 60.3 °F 81% 29.72 in 10.0 mi SW 6.9 mph - N/A   Overcast
11:15 AM 67.3 °F 57.9 °F 72% 29.71 in 10.0 mi SW 5.8 mph - N/A   Overcast
11:35 AM 68.5 °F 59.0 °F 72% 29.71 in 10.0 mi SSW 5.8 mph - N/A   Overcast
11:55 AM 69.1 °F 59.7 °F 72% 29.71 in 10.0 mi SSW 8.1 mph - N/A   Overcast
12:15 PM 70.0 °F 60.3 °F 71% 29.71 in 10.0 mi SSW 5.8 mph - N/A   Overcast
12:35 PM 71.4 °F 60.8 °F 69% 29.71 in 10.0 mi SW 6.9 mph - N/A   Overcast
12:55 PM 71.8 °F 60.3 °F 67% 29.71 in 10.0 mi SW 5.8 mph - N/A   Overcast
1:15 PM 72.0 °F 60.3 °F 67% 29.71 in 10.0 mi SW 9.2 mph - N/A   Overcast
1:35 PM 72.3 °F 60.1 °F 65% 29.71 in 10.0 mi SW 6.9 mph - N/A   Mostly Cloudy
1:55 PM 72.1 °F 60.1 °F 66% 29.69 in 10.0 mi SW 3.5 mph - N/A   Scattered Clouds
2:15 PM 72.5 °F 60.4 °F 66% 29.67 in 10.0 mi SW 6.9 mph - N/A   Clear
2:35 PM 72.9 °F 60.6 °F 65% 29.68 in 10.0 mi South 6.9 mph - N/A   Clear
2:55 PM 74.3 °F 60.4 °F 62% 29.68 in 10.0 mi SW 4.6 mph - N/A   Clear
3:15 PM 73.4 °F 60.4 °F 64% 29.67 in 10.0 mi South 5.8 mph - N/A   Clear
3:35 PM 71.6 °F 60.6 °F 68% 29.67 in 10.0 mi South 6.9 mph - N/A   Clear
3:55 PM 73.4 °F 61.2 °F 65% 29.67 in 10.0 mi South 9.2 mph - N/A   Clear
4:15 PM 73.4 °F 60.6 °F 64% 29.68 in 10.0 mi South 8.1 mph - N/A   Clear
5:55 PM 70.9 °F 58.6 °F 65% 29.69 in 10.0 mi South 5.8 mph - N/A   Clear
6:15 PM 68.7 °F 58.6 °F 70% 29.68 in 10.0 mi Calm Calm - N/A   Clear
6:35 PM 68.2 °F 59.0 °F 72% 29.67 in 10.0 mi SSE 3.5 mph - N/A   Clear
6:55 PM 67.3 °F 59.4 °F 76% 29.68 in 10.0 mi South 3.5 mph - N/A   Clear
7:15 PM 66.4 °F 63.7 °F 91% 29.69 in 10.0 mi Calm Calm - N/A   Clear
7:35 PM 62.6 °F 62.6 °F 100% 29.69 in 10.0 mi Calm Calm - N/A   Clear
7:55 PM 64.0 °F 64.0 °F 100% 29.70 in 10.0 mi South 3.5 mph - N/A   Clear
8:15 PM 64.6 °F 64.6 °F 100% 29.71 in 10.0 mi South 3.5 mph - N/A   Clear
8:35 PM 64.6 °F 64.6 °F 100% 29.71 in 10.0 mi Calm Calm - N/A   Clear
8:55 PM 64.6 °F 64.6 °F 100% 29.71 in 10.0 mi Calm Calm - N/A   Clear
9:15 PM 64.4 °F 64.4 °F 100% 29.69 in 10.0 mi Calm Calm - N/A   Clear
9:35 PM 64.0 °F 64.0 °F 100% 29.70 in 10.0 mi Calm Calm - N/A   Clear
9:55 PM 63.5 °F 63.5 °F 100% 29.69 in 10.0 mi Calm Calm - N/A   Clear
10:15 PM 62.2 °F 62.2 °F 100% 29.70 in 10.0 mi Calm Calm - N/A   Clear
10:35 PM 62.8 °F 62.8 °F 100% 29.70 in 5.0 mi Calm Calm - N/A   Clear
10:55 PM 61.2 °F 61.2 °F 100% 29.71 in 1.8 mi Calm Calm - N/A   Mist
11:15 PM 59.2 °F 59.2 °F 100% 29.70 in 0.2 mi Calm Calm - N/A Fog Fog
11:35 PM 58.3 °F 58.3 °F 100% 29.70 in 0.2 mi Calm Calm - N/A Fog Fog
11:55 PM 57.2 °F 57.2 °F 100% 29.70 in 0.2 mi Calm Calm - N/A Fog Fog